[[{"header":{"parameterUnit":"m.s-1","parameterCategory":1,"la1":30.2991,"la2":30.254,"lo1":-89.0895,"lo2":-89.0444,"dy":0.0017,"dx":0.0017,"nx":28,"ny":28,"refTime":"2025-06-14T09:00:00:Z","depth":0,"parameterNumber":2,"parameterNumberName":"U-component_of_WINDS"},"data":[0,0,0,0,0,0,0,0,0,0,0,0,0,0,0,0,0,0,0,0,0,0,0,0,0,0,0,0,0,0,0,0,0,0,0,0,0,0,0,0,0,0,0,0,0,0,0,0,0,0,0,0,0,0,0,0,0,0,0.9519,0.9521,0,0.9649,0.965,0.9652,0.9729,0.9729,0.973,0.973,0.9864,0.9867,0.987,0,0,0,0,0,0,0,0,0,0,0,0,0,0.934,0.9342,0.9519,0.9521,0.9522,0.9649,0.965,0.9652,0.9729,0.9729,0.973,0.973,0.9863,0.9867,0.9871,0,0,0,0,0,0,0,0,0,0,0,0,0,0.9438,0.9343,0.9519,0.9576,0.9582,0.9648,0.965,0.9653,0.9729,0.9729,0.973,0.973,0.9862,0.9866,0.9871,0.9891,0,0,0.9886,0.9888,0,0,0,0,0,0,0,0,0.9432,0.9445,0.9566,0.9572,0.9579,0.9673,0.9636,0.9732,0.9729,0.9673,0.973,0.973,0.98,0.981,0.9833,0.9897,0.9903,0.9886,0.9889,0.9891,0.9893,0,0,0,0,0,0,0,0.9425,0.9439,0.957,0.9567,0.9576,0.9595,0.961,0.9655,0.9732,0.9678,0.9684,0.9698,0.9804,0.9828,0.9837,0.9905,0.9886,0.9891,0.9894,0.9895,0.9991,0.9991,0,0,0,0,0,0,0.9409,0.9433,0.9566,0.9574,0.9506,0.9598,0.9614,0.9643,0.9732,0.9746,0.9698,0.9701,0.982,0.9831,0.9842,0.9871,0.9891,0.9896,0.9899,0.9992,0.9991,0.9991,0,0,0,0,0,0,0.9405,0.9421,0.9561,0.9506,0.9525,0.9601,0.9632,0.9645,0.9669,0.9747,0.9761,0.9708,0.9821,0.9835,0.9878,0.9876,0.9898,0.9903,0.9992,0.9992,0.9991,0.9928,0,0,0,0,0,0,0.94,0.9419,0.9426,0.9505,0.9528,0.9594,0.9632,0.9647,0.9677,0.9683,0.976,0.9774,0.9822,0.987,0.9883,0.9884,0.9906,0.9993,0.9992,0.9991,0.9931,0.9925,0.9921,0,0,0,0,0,0.9393,0.9404,0.9426,0.9442,0.9539,0.9594,0.9607,0.9662,0.9677,0.9686,0.9735,0.9771,0.9875,0.9874,0.9889,0.9891,0.9993,0.9992,0.9991,0.9933,0.9927,0.9921,0,0,0,0,0,0,0.9323,0.9415,0.9441,0.9478,0.9527,0.9607,0.962,0.9654,0.97,0.9704,0.9771,0.9788,0.9824,0.9862,0.986,0.9915,0.9938,0.994,0.9888,0.9883,0.9878,0.9868,0.991,0,0,0,0,0,0.9312,0.9349,0.9427,0.9452,0.9476,0.9543,0.9569,0.9607,0.9662,0.9683,0.9736,0.9788,0.9832,0.986,0.9905,0.9937,0.9955,0.9946,0.9941,0.9937,0.9937,0.9957,0.9954,0.9988,0.9988,0.9988,0,0,0.9289,0.9344,0.9363,0.9439,0.9482,0.9519,0.956,0.9597,0.9626,0.9689,0.9732,0.9773,0.9835,0.9873,0.9892,0.9905,0.9932,0.9935,0.9931,0.9935,0.9956,0.9952,0.9949,0.9988,0.9988,0.9988,0,0,0.9267,0.9312,0.9337,0.9379,0.9444,0.9489,0.9495,0.957,0.9599,0.9643,0.9692,0.9726,0.9801,0.9844,0.9875,0.9868,0.9903,0.9881,0.9856,0.9874,0.9871,0.9869,0.9866,0.9865,0.9882,0.9882,0.9882,0,0.923,0.9287,0.9346,0.938,0.9412,0.9471,0.9498,0.9536,0.9612,0.9633,0.9647,0.9742,0.9788,0.9836,0.9834,0.9858,0.9867,0.9872,0.9867,0.9865,0.9864,0.9862,0.9861,0.9879,0.9879,0.9879,0.988,0,0.9239,0.9278,0.9291,0.9362,0.9396,0.9426,0.9489,0.9517,0.9552,0.9595,0.964,0.9698,0.9755,0.977,0.9805,0.9823,0.9829,0.9854,0.9879,0.9857,0.9856,0.9856,0.9874,0.9875,0.9876,0.9877,0,0,0.9175,0.9279,0.9282,0.9315,0.9391,0.9423,0.9456,0.9512,0.9533,0.9584,0.9613,0.9675,0.9699,0.9735,0.9775,0.9791,0.9782,0.9815,0.9817,0.9806,0.9805,0.9784,0.9782,0.9806,0.9806,0.9806,0.9799,0,0.9163,0.9224,0.9278,0.932,0.9357,0.9414,0.9443,0.9492,0.9534,0.9572,0.9618,0.9661,0.9689,0.9711,0.9729,0.9779,0.9782,0.978,0.9833,0.9835,0.9815,0.9782,0.9761,0.9752,0.9799,0.9799,0.9799,0,0.9156,0.9204,0.9249,0.9322,0.9339,0.9364,0.942,0.9455,0.9513,0.9542,0.9581,0.9624,0.9662,0.9683,0.9736,0.9733,0.9758,0.9786,0.9787,0.9793,0.9815,0.9787,0.975,0.9748,0.98,0.98,0.98,0,0.9104,0.918,0.9217,0.9244,0.9329,0.9345,0.9382,0.944,0.947,0.9519,0.9539,0.9592,0.9621,0.9661,0.9716,0.9727,0.9763,0.9789,0.9789,0.9787,0.9793,0.9792,0.9759,0.981,0.981,0.981,0.981,0,0.9084,0.9109,0.9195,0.9217,0.9247,0.931,0.9338,0.938,0.9431,0.9463,0.9516,0.9545,0.9617,0.9655,0.9699,0.9735,0.9748,0.9773,0.9784,0.9768,0.9764,0.9784,0.9786,0.981,0.981,0.981,0.981,0,0.903,0.9088,0.9132,0.921,0.923,0.9249,0.9315,0.9339,0.9384,0.9424,0.9437,0.9507,0.9554,0.9614,0.968,0.971,0.9741,0.9759,0.9721,0.9728,0.9724,0.9723,0.9702,0.9702,0.9753,0.9753,0.9752,0,0.9013,0.9034,0.9114,0.9139,0.9173,0.9213,0.9244,0.9307,0.9337,0.9404,0.942,0.9471,0.9515,0.9588,0.9645,0.9696,0.9715,0.9704,0.9723,0.9705,0.9714,0.9711,0.9714,0.9699,0.9698,0.9697,0.9697,0,0.8976,0.9004,0.9047,0.9099,0.9135,0.918,0.9226,0.9244,0.9316,0.9348,0.9396,0.943,0.9498,0.9548,0.9606,0.9644,0.9682,0.969,0.9693,0.9676,0.9653,0.9664,0.9708,0.969,0.9691,0.9692,0.9692,0.9692,0.894,0.8961,0.902,0.9066,0.9108,0.9151,0.9177,0.9225,0.9267,0.9326,0.9361,0.9408,0.9466,0.9548,0.9585,0.9623,0.9637,0.9641,0.9642,0.9641,0.9636,0.9647,0.9634,0.9634,0.9634,0.9635,0.9635,0,0.8905,0.8946,0.8988,0.9052,0.9088,0.9121,0.9175,0.9203,0.9243,0.9294,0.9336,0.9392,0.9441,0.9502,0.9555,0.9573,0.9592,0.9585,0.9584,0.9592,0.962,0.9612,0.9569,0.9569,0.9569,0.9569,0.9569,0.9569,0.8891,0.8928,0.8963,0.9022,0.9063,0.911,0.9138,0.9177,0.9218,0.9278,0.9318,0.9358,0.9413,0.947,0.9517,0.9533,0.955,0.9537,0.9559,0.9584,0.959,0.9595,0.9588,0.9541,0.9541,0.9528,0.9528,0.9528]},{"header":{"parameterUnit":"m.s-1","parameterCategory":1,"la1":30.2991,"la2":30.254,"lo1":-89.0895,"lo2":-89.0444,"dy":0.0017,"dx":0.0017,"nx":28,"ny":28,"refTime":"2025-06-14T09:00:00:Z","depth":0,"parameterNumber":3,"parameterNumberName":"V-component_of_WINDS"},"data":[0,0,0,0,0,0,0,0,0,0,0,0,0,0,0,0,0,0,0,0,0,0,0,0,0,0,0,0,0,0,0,0,0,0,0,0,0,0,0,0,0,0,0,0,0,0,0,0,0,0,0,0,0,0,0,0,0,0,3.6457,3.6457,0,3.647,3.647,3.647,3.6511,3.6512,3.6513,3.6513,3.6525,3.6524,3.6524,0,0,0,0,0,0,0,0,0,0,0,0,0,3.6464,3.6464,3.6457,3.6457,3.6457,3.647,3.647,3.6471,3.6511,3.6512,3.6513,3.6514,3.6525,3.6524,3.6524,0,0,0,0,0,0,0,0,0,0,0,0,0,3.6467,3.6463,3.6457,3.6479,3.6481,3.647,3.647,3.6471,3.651,3.6512,3.6513,3.6514,3.6525,3.6524,3.6524,3.6492,0,0,3.6521,3.6521,0,0,0,0,0,0,0,0,3.6467,3.6467,3.6475,3.6477,3.648,3.649,3.6477,3.6478,3.651,3.6499,3.6513,3.6515,3.6512,3.6512,3.6512,3.6492,3.6493,3.6521,3.6521,3.652,3.652,0,0,0,0,0,0,0,3.6467,3.6467,3.6462,3.6475,3.6478,3.6487,3.6489,3.6477,3.6498,3.65,3.6503,3.6504,3.6513,3.6513,3.6512,3.6493,3.6521,3.652,3.652,3.652,3.6447,3.6446,0,0,0,0,0,0,3.6464,3.6466,3.6462,3.6462,3.6477,3.6486,3.6488,3.6485,3.6498,3.6501,3.6503,3.6506,3.6513,3.6513,3.6513,3.6476,3.652,3.6519,3.6519,3.6449,3.6447,3.6445,0,0,0,0,0,0,3.6464,3.6463,3.6461,3.6465,3.6466,3.6485,3.6481,3.6485,3.6484,3.65,3.6504,3.6499,3.6514,3.6514,3.6497,3.6477,3.6519,3.6518,3.645,3.6448,3.6446,3.6402,0,0,0,0,0,0,3.6464,3.6463,3.6451,3.6465,3.6465,3.6445,3.648,3.6484,3.6483,3.6487,3.6497,3.65,3.6515,3.6498,3.6496,3.6477,3.6518,3.6452,3.6449,3.6447,3.6405,3.6398,3.6393,0,0,0,0,0,3.6464,3.6438,3.6451,3.645,3.6452,3.6444,3.6444,3.6463,3.6481,3.6469,3.648,3.65,3.648,3.6496,3.6494,3.6474,3.6454,3.645,3.6447,3.6408,3.64,3.6393,0,0,0,0,0,0,3.6421,3.644,3.6454,3.6432,3.6436,3.6451,3.6437,3.6454,3.6452,3.6456,3.6479,3.6481,3.646,3.6466,3.6483,3.6444,3.647,3.6466,3.6441,3.6433,3.6427,3.6425,3.6517,0,0,0,0,0,3.6409,3.6402,3.6419,3.6397,3.6399,3.6417,3.6415,3.6429,3.6434,3.6436,3.6445,3.6448,3.6443,3.6438,3.6434,3.6407,3.6409,3.6392,3.6386,3.6381,3.6377,3.6362,3.6354,3.6435,3.6435,3.6435,0,0,3.6384,3.6393,3.6387,3.6389,3.6394,3.6385,3.6418,3.6408,3.6402,3.6434,3.6418,3.6425,3.643,3.6407,3.6398,3.6411,3.6355,3.6377,3.6372,3.6371,3.6358,3.635,3.6343,3.6433,3.6433,3.6433,0,0,3.6333,3.6341,3.6323,3.6328,3.6335,3.6348,3.6343,3.6356,3.6361,3.6346,3.637,3.6362,3.6353,3.6355,3.6355,3.6306,3.6324,3.6304,3.6271,3.6256,3.625,3.6244,3.6226,3.6219,3.63,3.63,3.63,0,3.6301,3.629,3.6312,3.63,3.63,3.6329,3.6312,3.6315,3.632,3.6318,3.6334,3.6322,3.6328,3.6305,3.6293,3.6293,3.6288,3.6302,3.6249,3.6244,3.6239,3.6222,3.6215,3.6298,3.6298,3.6298,3.6299,0,3.6249,3.6241,3.6226,3.6231,3.6229,3.6214,3.6233,3.6228,3.6243,3.6254,3.6237,3.6245,3.6243,3.6239,3.6253,3.6219,3.6227,3.6245,3.6272,3.6228,3.6212,3.6206,3.6294,3.6295,3.6296,3.6296,0,0,3.6171,3.6189,3.6183,3.6185,3.6196,3.6189,3.6176,3.6174,3.6169,3.6172,3.616,3.6152,3.6169,3.6169,3.6183,3.617,3.613,3.6191,3.6191,3.6178,3.6091,3.6077,3.6069,3.6142,3.6141,3.614,3.6091,0,3.6122,3.6101,3.612,3.6094,3.6086,3.6115,3.6103,3.6107,3.6117,3.6111,3.6122,3.6115,3.6139,3.6139,3.6127,3.6137,3.6113,3.6141,3.613,3.613,3.6127,3.606,3.6045,3.5997,3.6085,3.6084,3.6083,0,3.6063,3.6063,3.6037,3.6049,3.6046,3.6035,3.6035,3.603,3.6035,3.6043,3.6043,3.6061,3.6048,3.6075,3.6056,3.6075,3.6072,3.6076,3.6075,3.6073,3.6103,3.6056,3.5983,3.5975,3.6073,3.6074,3.6075,0,3.6007,3.6001,3.5985,3.5986,3.6,3.5991,3.5996,3.6004,3.6001,3.6001,3.6,3.5998,3.5997,3.5994,3.6011,3.6029,3.599,3.6018,3.5995,3.5994,3.5984,3.5984,3.5908,3.5984,3.5984,3.5984,3.5984,0,3.595,3.5932,3.596,3.5949,3.593,3.5953,3.5933,3.5941,3.5947,3.5938,3.5962,3.5953,3.5977,3.597,3.5983,3.5964,3.5964,3.5969,3.5972,3.5966,3.5965,3.5964,3.5967,3.5982,3.5983,3.5983,3.5983,0,3.5884,3.5902,3.5885,3.59,3.5903,3.5888,3.5901,3.5891,3.5903,3.5891,3.589,3.5907,3.59,3.5917,3.5913,3.5921,3.5895,3.5904,3.5893,3.5896,3.5871,3.5873,3.579,3.578,3.5863,3.5862,3.5862,0,3.5846,3.5833,3.5847,3.5843,3.5847,3.584,3.5839,3.586,3.5857,3.5863,3.5852,3.5848,3.5845,3.5832,3.5844,3.5841,3.5849,3.5821,3.5849,3.5843,3.5848,3.5848,3.5846,3.5814,3.5813,3.5813,3.5812,0,3.5776,3.5786,3.5782,3.5782,3.5779,3.578,3.5782,3.5777,3.5801,3.5796,3.5789,3.5787,3.5783,3.5778,3.5777,3.5782,3.58,3.5803,3.5797,3.579,3.5784,3.5786,3.5876,3.5805,3.5805,3.5806,3.5806,3.5807,3.5722,3.5712,3.572,3.5715,3.572,3.5721,3.5713,3.5724,3.5719,3.5718,3.5731,3.5722,3.5727,3.5728,3.5731,3.5724,3.5736,3.5728,3.5726,3.5723,3.5719,3.5786,3.5724,3.5724,3.5724,3.5724,3.5724,0,3.5653,3.566,3.5655,3.5658,3.5654,3.5674,3.5677,3.5672,3.5664,3.5668,3.5665,3.5658,3.5653,3.5665,3.5661,3.5653,3.5661,3.5651,3.5651,3.5652,3.5708,3.5713,3.5644,3.5644,3.5644,3.5644,3.5644,3.5644,3.5616,3.5599,3.561,3.5595,3.5602,3.5594,3.5594,3.5595,3.5599,3.559,3.5586,3.5594,3.5601,3.5599,3.5595,3.5598,3.5595,3.5582,3.5588,3.564,3.5648,3.5655,3.566,3.5581,3.5581,3.5533,3.5532,3.5532]}]]